Location: Beulah
(33.1426°N, 83.0557°W)
Time: 04:11:47
(UTC+00:00)

Envisat - Pass Details

Date: 09 December 2021
Orbit: 764 x 766 km, 98.2° (Epoch: 23 January)

Event Time Altitude Azimuth Distance (km) Brightness Sun altitude
Rises 10:49:15 0° 6° (N) 3,236 6.1 -19.3°
Reaches altitude 10° 10:51:36 10° 2° (N) 2,306 5.3 -18.9°
Maximum altitude 10:56:31 53° 286° (WNW) 933 3.0 -17.9°
Drops below altitude 10° 11:01:26 10° 210° (SSW) 2,292 5.3 -16.9°
Sets 11:03:46 0° 206° (SSW) 3,214 6.1 -16.4°
